Location: ????
(30.1475°N, 31.1342°E)
Time: 12:10:44
(UTC+00:00)

Cosmos 1605 Rocket - Visible Passes

Search period start: 02 April 2023 00:00
Search period end: 12 April 2023 00:00
Orbit: 945 x 1004 km, 82.9° (Epoch: 01 April)

Date Brightness Start Highest point End Pass type
(mag) Time Alt. Az. Time Alt. Az. Time Alt. Az.
02 Apr 6.9 02:42:34 10° SE 02:46:58 20° E 02:51:25 10° NE visible
03 Apr 5.7 03:06:08 10° SSE 03:11:55 40° E 03:17:47 10° NNE visible
05 Apr 6.9 02:13:45 10° ESE 02:17:32 17° E 02:21:20 10° NE visible
06 Apr 5.9 02:36:54 10° SSE 02:42:26 33° E 02:48:01 10° NNE visible
07 Apr 4.6 03:01:15 10° S 03:07:29 65° E 03:13:49 10° NNE visible
08 Apr 6.9 01:45:13 10° ESE 01:48:06 13° E 01:51:00 10° NE visible
09 Apr 6.1 02:07:44 10° SE 02:12:58 28° E 02:18:13 10° NNE visible
10 Apr 4.9 02:31:50 10° SSE 02:37:59 54° E 02:44:11 10° NNE visible
11 Apr 7.0 01:17:24 10° E 01:18:41 11° E 01:19:58 10° ENE visible
11 Apr 4.1 02:56:47 10° S 03:03:08 80° W 03:09:34 10° N visible
